Showing default

METEOR 1-11, 5917

Orbit data source: Space-Track

METEOR 1-11, 5917 is a Commonwealth of Independent States-origin payload satellite in LEO that was launched on Thu, 30 Mar 1972 UTC via a VOSTOK 8A92M launch vehicle from the Plesetsk Missile And Space Complex (PKMTR). Payload-class satellites include a variety of spacecraft equipped with specific instruments for various scientific and technological missions. These include communications satellites like Starlink; space stations such as the ISS; scientific satellites like the Hubble; Earth observation satellites from companies like Planet Labs, Umbra, and HawkEye 360; GPS; miniature CubeSats for education and research; and military/defense satellites.

Loading next visibility...
Identifier
5917, 1972-022A
Orbit
LEO
Country
Flag of CISCIS
Related business
Manufacturer
VNIIEM
Mission
Spacecraft
Bus & Motor
METEOR, Unknown motor
Mass
1,280 kg wet, 1,280 kg dry
Launch date (UTC)
1972-03-30 (54 years ago)
Launch vehicle
VOSTOK 8A92M
Launch site
Plesetsk Missile And Space Complex (PKMTR)
Object type
Payload
Rocket body
Debris
Shape & HBR
Unknown
Radar Cross Section
Large (>1 m²)

Expand to show TLE details & history
Last TLE update: 2 days ago

TLE from 2 days ago
0 METEOR 1-11
1  5917U 72022A   26171.39617135  .00000097  00000-0  48348-4 0  9994
2  5917  81.2310 282.0698 0049859 324.1582  35.6246 14.09283532784893
Epoch: 2026-06-20T09:30Z
TLE epoch observation values (Epoch: 2026-06-20T09:30:29.204Z)
Latitude
0.00001°
Longitude
-129.16328°
Altitude
835.436 km
Speed
7.45 km/s
True Right ascension
18h 48m 16s
True Declination
0° 00' 00"
Sunlit
Object was in full shadow at epoch
Visualization orbit readout
Latitude
Unknown
Longitude
Unknown
Altitude
Unknown
Speed
Unknown
Apparent Right ascension
Unknown
Apparent Declination
Unknown
Sunlit
N/A
Visualization observer readout
Local Sidereal Time
00:50:29
Azimuth
Unknown
Elevation
Unknown
Doppler factor
Unknown
Orbital elements
Apogee altitude
895.084 km
Perigee altitude
822.917 km
Semi-major axis
7,237.137 km
Eccentricity
0.00499
Inclination
81.231°
RAAN
282.0698°
Arg. of periapsis
324.1582°
True anomaly
35.95908°
Mean anomaly
35.6246°
Eccentric anomaly
35.79167°
Mean motion
3.52527 °/min
Orbital period
102.12 mins
BSTAR
0.000048348
Loading maneuver chart data...
Computing Atmospheric mass density...
Loading historical data...
Loading historical data...
Loading historical data...
Loading historical data...
Loading historical data...
Loading historical data...
Loading historical data...

Documentation

Showing up to 5 results
|